Temperature
19 20 21 21 21 20 20 19 19 20 19 19 19 18 18 19 19 19 20 20 20 21 21 21 21 21 21 21 21 20 21 21 20 20 19 19 19 19 19 19 19 18 18 18
20 20 20 20 20 20 20 20 19 19 19 18 18 18 18 18 18 18 19 20 20 20 20 20 20 20 20 20 20 20 21 20 20 20 19 19 19 19 19 18 18 18 18 18
18 19 20 19 19 19 19 18 19 19 19 18 17 17 17 18 18 18 19 19 19 20 20 20 20 20 20 20 20 20 20 20 20 19 19 19 18 18 18 18 18 17 17 17
16 18 19 18 18 19 18 18 17 17 17 17 17 17 18 18 18 18 18 19 19 19 19 19 19 19 19 19 19 19 19 19 19 19 19 19 18 18 18 18 17 17 17 17
14 16 17 18 18 18 18 17 17 17 17 16 17 17 17 18 18 18 18 19 19 19 19 19 19 19 19 19 19 19 19 18 18 18 18 18 18 18 18 17 17 17 17 17
14 17 17 17 18 18 18 17 16 16 16 16 16 16 16 17 18 18 18 18 18 18 19 19 19 18 18 18 18 18 18 18 18 17 17 17 17 17 17 17 17 17 17 17
14 15 16 16 16 17 18 17 16 16 16 16 15 16 16 17 17 17 17 17 18 18 18 18 18 18 18 18 17 17 17 17 17 17 17 17 17 17 16 16 16 16 16 16
13 15 15 15 15 16 15 16 16 16 16 16 16 16 16 16 16 16 17 17 17 17 17 17 17 17 17 17 17 16 16 16 16 16 16 16 16 16 16 16 16 16 16 16
13 13 13 14 14 15 15 15 16 16 16 16 15 15 15 16 16 16 16 16 16 16 16 16 16 16 16 16 16 16 16 16 16 16 15 15 15 15 15 15 15 15 15 15
12 12 13 14 15 15 15 15 16 16 16 16 15 15 15 15 15 16 16 16 16 16 16 15 15 15 15 15 15 15 15 15 15 15 15 15 15 15 15 14 14 14 14 14
11 12 13 14 14 15 15 15 15 16 16 15 15 15 15 15 15 15 15 15 15 15 15 14 14 14 14 14 14 14 14 14 14 14 14 14 14 14 14 14 14 14 14 14
12 12 12 13 14 14 14 14 15 15 15 15 15 14 14 14 14 14 14 14 14 14 14 14 14 14 14 14 14 13 13 13 13 13 13 13 13 13 13 13 13 13 13 13
13 14 14 14 14 14 14 14 14 14 14 14 14 14 14 14 14 14 14 14 14 14 14 13 13 13 13 13 13 13 13 13 13 13 12 12 13 13 13 13 13 13 12 12
14 13 13 13 13 14 14 14 14 14 14 14 13 13 13 13 13 13 13 13 13 13 13 13 13 13 13 13 12 12 12 12 12 12 12 12 12 12 12 12 12 12 12 12
13 13 13 13 13 13 13 13 13 13 13 13 13 13 13 13 13 13 13 13 13 12 12 12 12 12 12 12 12 12 12 12 12 12 11 11 11 11 11 11 11 11 11 11
13 13 13 13 13 13 13 13 13 13 13 13 13 13 13 12 12 12 12 12 12 12 12 12 12 12 12 11 11 11 11 11 11 11 11 11 11 11 11 11 10 10 10 10
12 12 12 12 12 12 12 13 12 12 12 12 12 12 12 12 12 12 12 12 11 11 11 11 11 11 11 11 11 11 11 11 10 10 10 10 10 10 10 10 10 10 10 10
13 12 12 12 12 12 12 12 12 12 12 12 12 12 12 12 11 11 11 11 11 11 11 11 11 11 11 10 10 10 10 10 10 10 10 10 10 10 10 9 9 9 9 9
12 12 12 12 12 12 12 12 11 11 11 11 11 11 11 11 11 11 10 10 11 11 10 10 10 10 10 10 10 10 10 10 9 9 9 9 9 9 9 9 9 9 9 9
12 12 12 12 12 12 11 11 11 11 11 11 11 11 11 10 10 10 10 10 10 10 10 10 10 10 10 10 9 9 9 9 9 9 9 9 9 9 9 9 9 9 9 8
12 11 11 11 11 11 11 11 11 11 11 11 11 11 10 10 10 10 10 9 9 9 9 9 9 9 9 9 9 9 9 9 9 9 9 9 9 9 8 8 8 8 8 8
11 11 11 11 11 11 11 11 11 10 10 10 10 10 10 10 9 9 9 9 9 9 9 9 9 9 9 9 9 9 9 9 9 8 8 8 8 8 8 8 8 8 8 7
11 11 11 11 11 10 10 10 10 10 10 10 10 10 10 10 9 9 9 9 9 9 9 9 9 9 9 9 9 9 8 8 8 8 8 8 8 8 8 8 8 7 7 7
11 11 10 10 10 10 10 10 10 10 10 10 10 10 10 9 9 9 9 9 9 9 9 8 8 8 8 8 8 8 8 8 8 8 8 8 7 7 7 7 7 7 7 7
10 10 10 10 10 10 10 10 10 10 10 10 10 9 9 9 9 9 9 9 9 8 8 8 8 8 8 8 8 8 8 8 8 8 7 7 7 7 7 7 7 7 7 6
10 10 10 10 10 10 10 10 10 10 10 9 9 9 9 9 9 9 9 9 9 9 9 8 8 8 8 8 8 8 8 8 8 7 7 7 7 7 7 7 7 7 6 6
10 10 10 10 10 10 10 10 10 9 9 9 9 9 9 9 9 9 9 9 9 9 9 8 8 8 8 8 8 8 8 8 7 7 7 7 7 7 7 7 7 6 6 6
Wind_Speed
4 4 3 3 3 4 5 7 8 8 6 7 4 3 1 0 2 3 4 4 3 3 4 3 4 3 4 5 5 5 5 5 5 4 4 4 5 5 5 5 6 5 5 4
1 2 2 1 2 2 3 3 4 3 4 4 1 2 1 1 2 2 2 2 3 4 4 4 3 3 3 3 4 5 5 4 4 3 3 3 4 4 4 5 5 4 5 5
3 3 1 3 4 3 2 2 5 6 6 2 2 2 3 2 2 2 2 3 3 4 4 3 3 3 3 4 4 4 4 3 3 3 4 4 5 4 5 5 5 4 5 5
2 1 5 5 1 3 3 1 1 2 2 3 3 1 0 1 2 1 1 1 2 3 3 3 3 3 2 2 2 2 2 2 1 2 3 4 4 5 5 5 5 5 6 6
3 3 3 4 2 2 3 1 2 2 2 2 3 3 3 2 1 2 1 1 1 2 3 3 3 3 3 1 2 2 1 1 2 2 2 3 4 4 4 4 5 5 6 7
3 4 6 6 4 3 3 2 2 1 2 1 2 1 3 1 1 2 2 2 2 2 3 3 2 3 3 2 2 1 1 1 1 2 2 3 4 4 3 4 5 5 5 4
3 3 5 4 6 1 3 5 2 2 2 3 3 4 2 0 1 2 2 2 2 2 2 1 2 3 2 1 1 2 1 1 1 1 2 3 2 2 3 3 3 3 3 2
3 3 6 4 3 2 4 2 1 1 1 2 2 1 2 2 2 2 2 2 2 3 3 2 2 2 1 2 3 2 1 1 1 1 1 2 2 2 2 3 3 3 3 2
5 5 3 2 2 3 2 1 1 1 0 2 2 1 1 1 1 1 1 1 1 2 2 3 2 2 0 2 2 2 2 2 2 1 1 1 1 2 1 2 3 3 3 3
1 3 3 3 2 2 1 1 1 1 2 2 2 2 1 1 1 1 1 1 1 2 2 2 2 2 1 1 1 0 1 1 2 2 2 2 1 1 1 2 2 3 3 3
2 3 3 3 2 2 2 2 2 1 1 2 3 3 3 2 2 2 1 1 1 1 1 1 1 2 2 2 1 1 1 1 1 1 1 1 1 1 1 2 3 4 4 3
5 5 4 4 4 2 1 2 1 1 1 0 2 3 3 3 3 2 1 1 1 1 1 1 0 1 2 2 1 1 1 2 1 1 1 1 0 1 3 1 1 1 2 3
5 4 4 5 3 2 2 2 2 0 1 1 1 2 4 3 2 1 2 2 2 2 2 1 0 1 2 1 0 1 1 2 1 1 1 1 1 1 1 3 3 2 0 1
4 2 2 3 3 2 2 1 0 1 1 0 1 1 1 0 1 1 2 2 2 1 1 0 1 2 3 1 1 1 2 2 2 2 2 1 1 1 1 1 1 2 1 1
5 4 4 3 3 2 1 0 1 1 2 2 1 0 0 0 1 1 1 1 0 1 0 0 1 3 3 2 1 1 2 2 2 2 1 1 1 1 1 1 1 1 0 1
3 1 1 1 2 2 0 1 1 1 2 1 1 1 1 1 1 1 1 0 0 1 1 1 2 4 3 2 1 1 2 2 2 1 1 1 1 1 1 1 2 1 1 1
3 2 2 2 2 1 1 1 2 2 1 1 1 1 1 1 2 2 2 1 1 1 1 1 3 3 2 2 1 1 2 2 2 1 1 2 2 2 1 1 2 2 2 2
4 4 4 4 3 1 0 1 1 0 0 0 1 2 2 2 1 1 1 2 2 2 2 2 2 2 2 2 1 1 1 1 1 1 1 1 1 1 1 2 2 2 1 1
3 2 2 2 2 2 2 1 1 1 1 1 2 2 2 1 1 1 2 2 2 2 4 3 2 2 1 1 1 0 0 0 0 0 0 1 0 1 1 2 2 2 1 1
1 2 2 2 2 3 2 2 2 1 1 2 3 2 2 2 2 2 3 2 2 2 3 2 2 2 2 2 1 0 1 1 1 1 1 1 1 0 1 1 1 1 1 1
2 2 3 3 3 2 2 2 2 2 1 1 2 2 1 1 2 2 2 2 3 3 2 3 2 2 2 1 1 1 1 1 1 1 1 0 0 0 0 1 1 1 1 1
2 2 3 3 3 2 1 1 2 2 1 1 1 2 2 2 2 2 2 1 2 3 2 2 2 2 3 2 2 2 2 2 1 1 1 1 0 0 1 1 1 1 1 1
1 2 2 3 3 2 2 2 2 1 1 1 1 1 1 0 0 1 1 2 2 3 2 2 2 3 3 2 2 2 2 2 1 1 1 1 1 0 0 1 1 1 1 1
2 2 2 2 3 3 2 1 1 1 1 1 0 0 1 1 1 1 1 2 3 3 2 2 2 3 3 2 2 2 1 1 1 1 1 1 1 1 0 0 1 1 1 1
2 2 2 2 2 1 1 1 2 2 2 1 1 1 0 1 1 1 1 1 2 2 2 3 3 2 2 1 1 1 1 1 1 0 0 0 1 1 1 1 1 1 1 1
3 2 2 1 1 1 1 1 1 1 1 1 2 2 1 1 0 0 1 1 2 2 2 2 2 2 1 1 1 0 1 1 0 0 1 1 1 1 1 1 1 1 1 1
3 2 2 2 2 1 1 1 1 0 0 1 0 1 1 1 1 1 1 1 2 2 1 1 1 1 1 0 1 1 1 1 1 0 1 1 1 1 1 1 1 1 1 1
Wind_Direction
233 238 209 214 234 195 188 188 190 220 216 247 246 234 243 100 85 79 78 90 102 113 121 130 130 138 145 148 155 160 165 184 202 207 200 196 198 195 202 207 216 211 207 210
283 256 199 224 280 215 205 198 204 196 246 259 233 109 90 93 98 91 92 108 110 120 134 142 146 145 140 150 163 165 173 192 194 183 192 202 203 192 192 204 208 199 199 202
240 284 39 267 253 206 189 219 188 202 225 192 138 167 196 194 153 146 145 139 137 138 151 153 148 150 159 170 166 165 166 175 186 185 192 203 210 198 196 201 195 203 212 212
188 124 217 236 248 165 154 285 236 201 210 181 177 176 261 167 139 126 111 123 131 128 119 130 134 136 157 151 144 149 148 170 193 210 206 203 205 203 199 198 199 207 217 222
145 184 251 281 267 177 162 283 296 180 166 117 105 68 14 11 108 142 153 141 125 121 119 119 126 128 121 121 119 119 146 199 209 204 217 221 218 215 207 209 215 217 216 216
138 165 216 244 295 298 128 267 299 147 166 155 100 120 256 311 67 67 60 60 63 71 96 105 112 119 121 132 132 157 206 233 234 219 207 221 222 220 213 215 220 217 222 222
160 202 246 275 303 337 180 233 262 190 186 169 186 207 214 128 78 92 91 87 86 88 87 87 86 100 102 78 272 260 241 224 221 227 218 219 225 219 212 210 214 219 231 242
151 186 245 319 7 168 227 269 247 196 179 155 161 117 112 100 87 78 69 58 61 73 58 39 56 92 79 292 286 300 299 279 262 235 222 208 198 221 212 198 210 224 223 238
189 212 251 295 260 287 266 251 255 181 147 129 129 138 147 131 120 96 73 54 65 92 70 27 28 73 190 282 297 319 339 329 328 341 316 267 224 222 220 210 219 230 223 230
264 276 290 307 309 313 302 247 239 154 134 139 162 184 186 185 179 164 112 77 75 85 73 21 5 20 302 292 292 296 325 319 331 334 323 330 314 261 237 239 232 225 221 226
265 269 310 317 311 313 346 4 34 68 131 168 178 207 212 215 222 218 200 179 138 142 166 252 338 348 330 341 21 18 319 301 314 309 287 309 337 326 258 250 226 220 225 218
229 230 214 258 277 305 316 312 323 38 25 27 191 227 235 227 234 230 217 211 185 186 207 238 264 336 334 346 23 56 345 332 324 315 297 254 213 7 14 328 21 295 228 206
226 234 220 250 279 269 230 251 270 209 161 323 289 228 227 219 228 220 217 211 207 210 211 218 278 315 316 326 149 181 232 272 282 278 268 262 245 230 313 351 27 34 50 164
228 211 259 263 266 286 266 249 244 48 41 43 322 290 228 215 229 227 234 223 201 173 178 231 301 304 304 290 203 223 242 251 252 249 248 244 254 254 245 251 300 336 0 126
261 225 226 252 281 305 296 141 69 357 349 3 355 350 211 249 281 291 303 306 109 108 274 303 313 304 311 303 248 245 256 262 260 253 252 242 238 241 240 231 220 242 353 14
245 251 234 266 275 281 279 168 180 272 288 304 313 284 218 191 203 316 327 323 135 277 287 296 292 294 307 301 284 276 271 273 266 253 255 248 233 227 234 224 224 220 222 234
200 236 237 242 252 236 218 215 202 221 239 265 259 238 102 88 68 41 9 5 53 327 313 300 288 298 305 290 267 268 273 279 277 251 236 238 233 225 221 219 228 231 245 237
202 219 217 202 198 184 145 101 98 102 241 268 65 77 80 83 76 25 359 25 37 14 342 311 295 312 323 317 305 273 259 262 258 248 244 242 233 218 209 217 221 222 242 251
185 185 175 173 173 152 141 124 94 74 53 83 87 76 65 72 76 48 37 43 33 353 327 332 343 352 337 319 338 279 232 11 335 319 146 123 126 182 203 212 215 219 221 225
99 98 104 100 94 109 118 109 93 79 74 101 98 87 63 36 42 50 50 37 345 295 305 344 7 1 340 324 347 78 109 108 97 79 75 98 108 136 212 215 219 223 222 220
117 110 104 100 88 80 96 113 111 99 60 96 115 122 110 55 49 59 65 31 338 338 357 12 18 358 344 353 29 68 83 87 81 74 70 78 103 85 281 249 240 241 231 217
140 138 130 121 108 81 48 91 113 112 91 82 89 99 97 76 48 40 24 339 314 340 0 5 3 1 11 32 63 73 75 76 69 65 59 39 40 359 289 274 252 239 232 224
129 139 135 136 132 118 73 70 87 96 97 105 107 108 115 106 144 120 327 318 331 354 7 356 357 13 34 50 63 67 65 68 62 57 47 21 9 2 298 283 273 233 211 218
91 103 112 119 112 100 82 39 41 57 71 68 73 141 132 102 340 304 257 320 346 1 15 4 8 26 39 50 56 56 46 45 48 44 26 11 0 0 318 267 259 247 237 230
114 112 100 99 96 107 151 73 44 42 47 38 13 358 355 187 209 281 325 344 355 14 15 9 12 30 52 57 59 45 13 5 18 49 90 320 311 316 311 294 278 232 228 234
102 102 93 98 121 132 118 91 67 18 37 30 355 348 359 21 66 48 10 356 2 11 14 11 16 33 50 50 43 11 329 323 313 289 274 280 293 281 268 258 263 269 255 246
75 78 73 54 41 70 105 109 116 343 177 134 336 330 348 23 34 14 358 355 357 5 10 12 16 18 23 359 329 310 315 327 331 320 300 289 283 274 265 257 267 280 282 260
Height
1471 1467 1467 1468 1468 1469 1472 1475 1482 1477 1476 1467 1463 1462 1461 1461 1460 1461 1462 1463 1465 1468 1469 1471 1474 1476 1479 1481 1484 1487 1490 1492 1493 1495 1498 1499 1500 1501 1503 1503 1504 1506 1507 1508
1471 1466 1466 1468 1467 1467 1467 1468 1470 1470 1471 1463 1462 1461 1461 1461 1462 1462 1462 1463 1465 1467 1468 1470 1472 1475 1478 1480 1482 1484 1486 1488 1489 1491 1493 1495 1496 1497 1498 1499 1501 1502 1503 1504
1479 1471 1468 1476 1469 1467 1467 1465 1466 1469 1466 1461 1462 1461 1461 1461 1461 1461 1462 1463 1464 1466 1468 1469 1471 1474 1476 1478 1480 1481 1482 1484 1485 1487 1488 1490 1492 1493 1494 1495 1496 1498 1499 1499
1482 1477 1484 1474 1462 1462 1463 1463 1462 1462 1461 1460 1460 1461 1461 1461 1461 1462 1463 1464 1464 1465 1467 1469 1471 1473 1475 1476 1477 1478 1478 1480 1482 1483 1483 1485 1487 1488 1489 1490 1491 1492 1494 1494
1486 1485 1479 1469 1462 1462 1464 1466 1461 1461 1460 1460 1460 1460 1461 1462 1462 1463 1463 1464 1465 1466 1467 1468 1470 1471 1473 1474 1473 1475 1476 1477 1479 1479 1479 1481 1482 1483 1484 1486 1487 1488 1488 1489
1483 1483 1484 1471 1460 1458 1461 1467 1461 1460 1460 1460 1461 1465 1464 1462 1462 1462 1464 1465 1465 1466 1466 1467 1469 1470 1470 1471 1471 1471 1472 1474 1475 1476 1476 1477 1478 1479 1480 1482 1482 1483 1483 1484
1481 1481 1475 1465 1460 1459 1471 1468 1461 1459 1459 1459 1461 1462 1462 1461 1462 1462 1463 1464 1465 1466 1466 1467 1467 1468 1468 1469 1469 1469 1470 1472 1472 1473 1473 1473 1473 1475 1476 1477 1478 1477 1478 1478
1481 1481 1478 1463 1461 1464 1464 1460 1459 1458 1458 1459 1459 1460 1460 1460 1461 1461 1461 1463 1464 1465 1465 1467 1467 1466 1466 1468 1468 1468 1469 1469 1470 1470 1470 1470 1470 1471 1472 1472 1472 1473 1474 1474
1473 1473 1466 1463 1463 1462 1461 1460 1459 1459 1459 1459 1460 1460 1460 1460 1461 1461 1462 1463 1464 1464 1464 1465 1465 1466 1465 1465 1467 1466 1466 1466 1466 1466 1467 1467 1467 1467 1467 1468 1469 1470 1471 1471
1470 1466 1464 1462 1461 1461 1460 1460 1459 1459 1459 1460 1460 1460 1461 1461 1461 1461 1461 1462 1462 1462 1462 1463 1464 1464 1464 1464 1464 1464 1464 1463 1463 1463 1463 1464 1464 1464 1464 1464 1465 1466 1467 1468
1468 1465 1463 1461 1461 1461 1461 1460 1459 1458 1459 1459 1459 1459 1459 1460 1460 1460 1460 1461 1461 1461 1461 1461 1462 1462 1462 1461 1461 1461 1461 1461 1460 1461 1461 1461 1461 1461 1461 1461 1462 1462 1463 1464
1466 1462 1462 1461 1460 1460 1460 1460 1459 1458 1458 1458 1458 1458 1458 1458 1459 1459 1459 1459 1459 1459 1460 1459 1459 1459 1459 1459 1459 1459 1458 1458 1458 1458 1458 1458 1457 1457 1457 1458 1457 1458 1458 1459
1459 1459 1459 1459 1458 1459 1458 1458 1458 1457 1456 1456 1456 1456 1456 1456 1456 1457 1457 1457 1457 1457 1457 1457 1457 1457 1457 1457 1457 1457 1456 1456 1456 1455 1455 1455 1454 1454 1453 1453 1453 1454 1455 1455
1456 1457 1456 1456 1457 1457 1457 1456 1456 1456 1455 1455 1455 1454 1454 1453 1454 1454 1454 1454 1454 1454 1454 1454 1454 1454 1454 1454 1454 1454 1454 1454 1453 1452 1452 1451 1451 1451 1451 1450 1450 1450 1451 1452
1453 1454 1454 1454 1455 1454 1454 1454 1454 1454 1453 1453 1453 1453 1453 1452 1452 1452 1452 1452 1452 1451 1451 1451 1451 1451 1452 1452 1451 1451 1451 1450 1450 1449 1449 1448 1449 1449 1449 1448 1448 1448 1448 1448
1451 1452 1452 1452 1452 1452 1453 1453 1452 1452 1452 1451 1451 1452 1452 1452 1451 1451 1451 1450 1450 1449 1449 1449 1449 1449 1450 1450 1449 1448 1448 1448 1447 1446 1446 1446 1446 1446 1445 1445 1445 1445 1445 1446
1450 1450 1450 1450 1451 1451 1451 1451 1451 1451 1451 1450 1450 1450 1450 1450 1449 1449 1449 1449 1448 1448 1447 1447 1447 1447 1447 1447 1447 1446 1446 1445 1444 1444 1443 1443 1443 1442 1442 1442 1442 1442 1443 1444
1448 1448 1449 1449 1449 1450 1450 1450 1450 1450 1450 1450 1450 1450 1449 1449 1449 1448 1448 1447 1447 1446 1445 1445 1445 1445 1445 1444 1444 1443 1443 1442 1442 1441 1441 1440 1440 1439 1439 1440 1440 1440 1440 1441
1446 1447 1448 1448 1449 1449 1449 1449 1450 1450 1450 1450 1450 1450 1449 1449 1449 1448 1447 1446 1445 1444 1444 1443 1443 1442 1442 1442 1442 1441 1441 1440 1439 1439 1438 1438 1438 1437 1437 1438 1438 1438 1438 1438
1446 1447 1447 1448 1448 1448 1449 1449 1449 1450 1450 1450 1450 1450 1450 1449 1448 1447 1446 1445 1444 1443 1443 1442 1441 1440 1440 1440 1440 1439 1439 1439 1438 1437 1437 1436 1436 1436 1436 1436 1436 1436 1436 1436
1446 1447 1447 1447 1448 1449 1449 1449 1449 1450 1450 1450 1450 1450 1449 1449 1448 1447 1445 1444 1444 1443 1442 1441 1440 1439 1439 1439 1439 1438 1438 1437 1437 1436 1436 1435 1435 1435 1434 1434 1434 1434 1433 1433
1446 1446 1447 1447 1448 1448 1449 1449 1450 1450 1450 1450 1450 1450 1449 1449 1448 1447 1446 1445 1444 1443 1442 1441 1440 1440 1439 1439 1438 1438 1437 1437 1436 1436 1435 1435 1434 1434 1434 1433 1433 1433 1432 1432
1446 1446 1447 1447 1448 1449 1449 1449 1450 1450 1450 1450 1450 1450 1449 1449 1449 1448 1447 1446 1445 1444 1442 1441 1441 1440 1440 1439 1439 1438 1438 1437 1436 1436 1435 1435 1434 1434 1433 1433 1432 1432 1431 1431
1446 1447 1447 1448 1448 1449 1449 1450 1450 1450 1451 1450 1450 1450 1450 1450 1449 1449 1448 1447 1446 1444 1443 1442 1441 1441 1440 1440 1440 1439 1438 1438 1437 1436 1436 1435 1435 1434 1433 1432 1432 1431 1430 1430
1447 1448 1448 1448 1449 1449 1449 1450 1450 1451 1451 1451 1451 1451 1451 1450 1450 1450 1449 1448 1447 1446 1444 1443 1443 1442 1441 1441 1440 1440 1439 1439 1438 1437 1437 1436 1435 1434 1433 1432 1431 1431 1430 1429
1448 1449 1449 1449 1450 1450 1450 1451 1451 1451 1451 1451 1451 1451 1451 1451 1451 1450 1450 1449 1448 1447 1446 1445 1444 1443 1442 1442 1441 1440 1440 1439 1438 1438 1437 1436 1435 1434 1433 1432 1431 1430 1429 1428
1450 1450 1451 1451 1451 1451 1452 1452 1452 1452 1452 1452 1452 1452 1452 1452 1451 1451 1450 1450 1449 1448 1447 1446 1445 1444 1443 1442 1442 1441 1440 1440 1439 1437 1436 1435 1434 1433 1432 1431 1430 1429 1428 1427